,,PA_Meas_PMT16A,,PR_Meas_QMR101_102,,RH_Meas_QMH101,,SR_Meas_QMS101,,TA_Meas_QMH101,,GenWind,,GenWind,
time,status,PA,status,PR,status,RH,status,SR,status,TA,status,DirAvg,status,SpdAvg,
2011-08-27, 00:00:04,VALID,917.789,VALID,0,VALID,95.3994,VALID,0.107441,VALID,20.1303,VALID,3,VALID,0,
2011-08-27, 00:01:04,VALID,917.792,VALID,0,VALID,95.4147,VALID,0.107441,VALID,20.1513,VALID,3,VALID,0,
2011-08-27, 00:02:04,VALID,917.76,VALID,0,VALID,95.468,VALID,0.107441,VALID,20.1303,VALID,3,VALID,0,
2011-08-27, 00:03:04,VALID,917.723,VALID,0,VALID,95.5062,VALID,0,VALID,20.1303,VALID,3,VALID,0,
2011-08-27, 00:04:04,VALID,917.713,VALID,0,VALID,95.5062,VALID,0,VALID,20.1108,VALID,3,VALID,0.0585938,
2011-08-27, 00:05:04,VALID,917.693,VALID,0,VALID,95.5976,VALID,0,VALID,20.0913,VALID,3,VALID,0.226953,
2011-08-27, 00:06:04,VALID,917.715,VALID,0,VALID,95.6434,VALID,0.107441,VALID,20.0718,VALID,3,VALID,0.0894531,
2011-08-27, 00:07:04,VALID,917.696,VALID,0,VALID,95.6815,VALID,0.107441,VALID,20.0523,VALID,3,VALID,0,
2011-08-27, 00:08:04,VALID,917.691,VALID,0,VALID,95.5976,VALID,0,VALID,19.9938,VALID,3,VALID,0,
2011-08-27, 00:09:04,VALID,917.676,VALID,0,VALID,95.3689,VALID,0,VALID,19.9368,VALID,3,VALID,0.00234375,
2011-08-27, 00:10:04,VALID,917.689,VALID,0,VALID,95.2698,VALID,0,VALID,19.8783,VALID,3,VALID,0.2,
2011-08-27, 00:11:04,VALID,917.694,VALID,0,VALID,95.247,VALID,0.107441,VALID,19.8183,VALID,3,VALID,0.347266,
2011-08-27, 00:12:04,VALID,917.695,VALID,0,VALID,95.1707,VALID,0,VALID,19.7808,VALID,3,VALID,0.577734,
2011-08-27, 00:13:04,VALID,917.723,VALID,0,VALID,95.2927,VALID,0,VALID,19.7613,VALID,3,VALID,0.596094,
2011-08-27, 00:14:04,VALID,917.724,VALID,0,VALID,95.5976,VALID,0,VALID,19.7808,VALID,3,VALID,0.810156,
2011-08-27, 00:15:04,VALID,917.72,VALID,0,VALID,95.7196,VALID,0,VALID,19.7598,VALID,3,VALID,0.703516,
2011-08-27, 00:16:04,VALID,917.726,VALID,0,VALID,95.9559,VALID,0,VALID,19.8003,VALID,3,VALID,0.864062,
2011-08-27, 00:17:04,VALID,917.715,VALID,0,VALID,96.0322,VALID,0,VALID,19.8003,VALID,3,VALID,0.804688,
2011-08-27, 00:18:04,VALID,917.692,VALID,0,VALID,96.1541,VALID,0,VALID,19.8003,VALID,3,VALID,0.592188,
2011-08-27, 00:19:04,VALID,917.677,VALID,0,VALID,96.2075,VALID,0,VALID,19.7793,VALID,3,VALID,0.710156,
2011-08-27, 00:20:04,VALID,917.677,VALID,0,VALID,96.3066,VALID,0,VALID,19.7808,VALID,3,VALID,0.535937,
2011-08-27, 00:21:04,VALID,917.662,VALID,0,VALID,96.3371,VALID,0.107441,VALID,19.8003,VALID,3,VALID,0.799609,
2011-08-27, 00:22:04,VALID,917.655,VALID,0,VALID,96.3371,VALID,0,VALID,19.7208,VALID,3,VALID,0.895312,
2011-08-27, 00:23:04,VALID,917.663,VALID,0,VALID,96.3752,VALID,0,VALID,19.7418,VALID,3,VALID,0.757422,
2011-08-27, 00:24:04,VALID,917.637,VALID,0,VALID,96.4591,VALID,0,VALID,19.7418,VALID,3,VALID,0.842188,
2011-08-27, 00:25:04,VALID,917.666,VALID,0,VALID,96.4515,VALID,0,VALID,19.7403,VALID,3,VALID,0.641016,
2011-08-27, 00:26:04,VALID,917.646,VALID,0,VALID,96.4972,VALID,0,VALID,19.7418,VALID,3,VALID,0.513281,
2011-08-27, 00:27:04,VALID,917.665,VALID,0,VALID,96.5429,VALID,0,VALID,19.7418,VALID,3,VALID,0.2375,
2011-08-27, 00:28:04,VALID,917.685,VALID,0,VALID,96.5887,VALID,0,VALID,19.7418,VALID,3,VALID,0.40625,
2011-08-27, 00:29:04,VALID,917.693,VALID,0,VALID,96.6497,VALID,0,VALID,19.7598,VALID,3,VALID,0.0472656,
2011-08-27, 00:30:04,VALID,917.696,VALID,0,VALID,96.6802,VALID,0,VALID,19.8003,VALID,3,VALID,0,
2011-08-27, 00:31:04,VALID,917.695,VALID,0,VALID,96.7107,VALID,0,VALID,19.8198,VALID,3,VALID,0,
2011-08-27, 00:32:04,VALID,917.695,VALID,0,VALID,96.7335,VALID,0,VALID,19.8588,VALID,3,VALID,0,
2011-08-27, 00:33:04,VALID,917.697,VALID,0,VALID,96.7259,VALID,0,VALID,19.8588,VALID,3,VALID,0,
2011-08-27, 00:34:04,VALID,917.654,VALID,0,VALID,96.6878,VALID,0,VALID,19.8588,VALID,3,VALID,0.375,
2011-08-27, 00:35:04,VALID,917.665,VALID,0,VALID,96.642,VALID,0,VALID,19.8198,VALID,3,VALID,0.38125,
2011-08-27, 00:36:04,VALID,917.668,VALID,0,VALID,96.6649,VALID,0,VALID,19.8198,VALID,3,VALID,0.075,
2011-08-27, 00:37:04,VALID,917.651,VALID,0,VALID,96.6192,VALID,0,VALID,19.8198,VALID,3,VALID,0.365625,
2011-08-27, 00:38:04,VALID,917.659,VALID,0,VALID,96.6192,VALID,0,VALID,19.8003,VALID,3,VALID,0.394141,
2011-08-27, 00:39:04,VALID,917.637,VALID,0,VALID,96.6115,VALID,0,VALID,19.7418,VALID,3,VALID,0.355859,
2011-08-27, 00:40:04,VALID,917.651,VALID,0,VALID,96.6192,VALID,0,VALID,19.7223,VALID,3,VALID,0.463281,
2011-08-27, 00:41:04,VALID,917.649,VALID,0,VALID,96.6573,VALID,0,VALID,19.7223,VALID,3,VALID,0.230078,
2011-08-27, 00:42:04,VALID,917.646,VALID,0,VALID,96.6802,VALID,0,VALID,19.7013,VALID,3,VALID,0.144531,
2011-08-27, 00:43:04,VALID,917.624,VALID,0,VALID,96.6954,VALID,0,VALID,19.7028,VALID,3,VALID,0.126953,
2011-08-27, 00:44:04,VALID,917.6,VALID,0,VALID,96.6802,VALID,0,VALID,19.6428,VALID,3,VALID,0.320703,
2011-08-27, 00:45:04,VALID,917.61,VALID,0,VALID,96.642,VALID,0,VALID,19.6443,VALID,3,VALID,0.125,
2011-08-27, 00:46:04,VALID,917.565,VALID,0,VALID,96.6725,VALID,0,VALID,19.6443,VALID,3,VALID,0.285547,
2011-08-27, 00:47:04,VALID,917.536,VALID,0,VALID,96.6497,VALID,0,VALID,19.6248,VALID,3,VALID,0.344141,
2011-08-27, 00:48:04,VALID,917.556,VALID,0,VALID,96.642,VALID,0,VALID,19.6053,VALID,3,VALID,0.569922,
2011-08-27, 00:49:04,VALID,917.503,VALID,0,VALID,96.5887,VALID,0,VALID,19.5663,VALID,3,VALID,0.639453,
2011-08-27, 00:50:04,VALID,917.507,VALID,0,VALID,96.5963,VALID,0,VALID,19.5468,VALID,3,VALID,0.704687,
2011-08-27, 00:51:04,VALID,917.48,VALID,0,VALID,96.6344,VALID,0,VALID,19.5078,VALID,3,VALID,0.572266,
2011-08-27, 00:52:04,VALID,917.431,VALID,0,VALID,96.6497,VALID,0,VALID,19.5078,VALID,3,VALID,0.392188,
2011-08-27, 00:53:04,VALID,917.409,VALID,0,VALID,96.6878,VALID,0,VALID,19.5078,VALID,3,VALID,0.391797,
2011-08-27, 00:54:04,VALID,917.417,VALID,0,VALID,96.6954,VALID,0,VALID,19.4883,VALID,3,VALID,0,
2011-08-27, 00:55:04,VALID,917.359,VALID,0,VALID,96.6802,VALID,0,VALID,19.5078,VALID,3,VALID,0,
2011-08-27, 00:56:04,VALID,917.334,VALID,0,VALID,96.6649,VALID,0,VALID,19.4688,VALID,3,VALID,0,
2011-08-27, 00:57:04,VALID,917.295,VALID,0,VALID,96.421,VALID,0,VALID,19.4103,VALID,3,VALID,0,
2011-08-27, 00:58:04,VALID,917.267,VALID,0,VALID,96.2837,VALID,0,VALID,19.2933,VALID,3,VALID,0,
2011-08-27, 00:59:04,VALID,917.215,VALID,0,VALID,96.3142,VALID,0,VALID,19.2543,VALID,3,VALID,0,
2011-08-27, 01:00:04,VALID,917.201,VALID,0,VALID,96.4743,VALID,0,VALID,19.2738,VALID,3,VALID,0,
2011-08-27, 01:01:04,VALID,917.147,VALID,0,VALID,96.5963,VALID,0,VALID,19.3143,VALID,3,VALID,0,
2011-08-27, 01:02:04,VALID,917.127,VALID,0,VALID,96.6039,VALID,0,VALID,19.2933,VALID,3,VALID,0,
2011-08-27, 01:03:04,VALID,917.088,VALID,0,VALID,96.5734,VALID,0,VALID,19.2723,VALID,3,VALID,0,
2011-08-27, 01:04:04,VALID,917.047,VALID,0,VALID,96.5582,VALID,0,VALID,19.2738,VALID,3,VALID,0,
2011-08-27, 01:05:04,VALID,917.032,VALID,0,VALID,96.5582,VALID,0,VALID,19.2753,VALID,3,VALID,0,
2011-08-27, 01:06:04,VALID,917.019,VALID,0,VALID,96.5658,VALID,0,VALID,19.2738,VALID,3,VALID,0,
2011-08-27, 01:07:04,VALID,917.008,VALID,0,VALID,96.5811,VALID,0,VALID,19.2933,VALID,3,VALID,0,
2011-08-27, 01:08:04,VALID,917.07,VALID,0,VALID,96.6725,VALID,0,VALID,19.3128,VALID,3,VALID,0,
2011-08-27, 01:09:04,VALID,917.081,VALID,0,VALID,96.5811,VALID,0,VALID,19.2933,VALID,3,VALID,0,
2011-08-27, 01:10:04,VALID,917.114,VALID,0,VALID,96.5506,VALID,0,VALID,19.2933,VALID,3,VALID,0.0203125,
2011-08-27, 01:11:04,VALID,917.122,VALID,0,VALID,96.5734,VALID,0,VALID,19.2738,VALID,3,VALID,0.495703,
2011-08-27, 01:12:04,VALID,917.13,VALID,0,VALID,96.7793,VALID,0,VALID,19.3713,VALID,3,VALID,0.702734,
2011-08-27, 01:13:04,VALID,917.121,VALID,0,VALID,96.7716,VALID,0,VALID,19.4103,VALID,3,VALID,0.372656,
2011-08-27, 01:14:04,VALID,917.092,VALID,0,VALID,96.6115,VALID,0,VALID,19.3908,VALID,3,VALID,0.337109,
2011-08-27, 01:15:04,VALID,917.08,VALID,0,VALID,96.5429,VALID,0,VALID,19.3518,VALID,3,VALID,0.192969,
2011-08-27, 01:16:04,VALID,917.057,VALID,0,VALID,96.6115,VALID,0,VALID,19.3323,VALID,3,VALID,0.239844,
2011-08-27, 01:17:04,VALID,917.033,VALID,0,VALID,96.6268,VALID,0,VALID,19.3518,VALID,3,VALID,0.348437,
2011-08-27, 01:18:04,VALID,917.036,VALID,0,VALID,96.6649,VALID,0,VALID,19.3518,VALID,3,VALID,0.440625,
2011-08-27, 01:19:04,VALID,917.015,VALID,0,VALID,96.5963,VALID,0,VALID,19.3323,VALID,3,VALID,0.291016,
2011-08-27, 01:20:04,VALID,917.033,VALID,0,VALID,96.6573,VALID,0,VALID,19.3323,VALID,3,VALID,0.392188,
2011-08-27, 01:21:04,VALID,917.031,VALID,0,VALID,96.6573,VALID,0,VALID,19.3323,VALID,3,VALID,0.212891,
2011-08-27, 01:22:04,VALID,917.007,VALID,0,VALID,96.6497,VALID,0,VALID,19.3128,VALID,3,VALID,0.0597656,
2011-08-27, 01:23:04,VALID,916.994,VALID,0,VALID,96.703,VALID,0,VALID,19.3533,VALID,3,VALID,0,
2011-08-27, 01:24:04,VALID,916.952,VALID,0,VALID,96.7183,VALID,0,VALID,19.3323,VALID,3,VALID,0,
2011-08-27, 01:25:04,VALID,916.941,VALID,0,VALID,96.764,VALID,0,VALID,19.3533,VALID,3,VALID,0.226563,
2011-08-27, 01:26:04,VALID,916.913,VALID,0,VALID,96.8021,VALID,0,VALID,19.3728,VALID,3,VALID,0,
2011-08-27, 01:27:04,VALID,916.881,VALID,0,VALID,96.8326,VALID,0,VALID,19.3923,VALID,3,VALID,0,
2011-08-27, 01:28:04,VALID,916.838,VALID,0,VALID,96.8707,VALID,0,VALID,19.3908,VALID,3,VALID,0.0179687,
2011-08-27, 01:29:04,VALID,916.785,VALID,0,VALID,96.8326,VALID,0,VALID,19.3908,VALID,3,VALID,0.270312,
2011-08-27, 01:30:04,VALID,916.789,VALID,0,VALID,96.8479,VALID,0,VALID,19.4118,VALID,3,VALID,0.128516,
2011-08-27, 01:31:04,VALID,916.778,VALID,0,VALID,96.8631,VALID,0,VALID,19.4118,VALID,3,VALID,0,
2011-08-27, 01:32:04,VALID,916.782,VALID,0,VALID,96.8555,VALID,0,VALID,19.4298,VALID,3,VALID,0,
2011-08-27, 01:33:04,VALID,916.768,VALID,0,VALID,96.9394,VALID,0,VALID,19.4298,VALID,3,VALID,0.391406,
2011-08-27, 01:34:04,VALID,916.787,VALID,0,VALID,96.9546,VALID,0,VALID,19.4688,VALID,3,VALID,0.00664063,
2011-08-27, 01:35:04,VALID,916.794,VALID,0,VALID,96.9394,VALID,0,VALID,19.4883,VALID,3,VALID,0,
2011-08-27, 01:36:04,VALID,916.79,VALID,0,VALID,96.9546,VALID,0,VALID,19.4883,VALID,3,VALID,0,
2011-08-27, 01:37:04,VALID,916.775,VALID,0,VALID,96.9241,VALID,0,VALID,19.5093,VALID,3,VALID,0.173438,
2011-08-27, 01:38:04,VALID,916.724,VALID,0,VALID,96.947,VALID,0,VALID,19.5093,VALID,3,VALID,0.0265625,
2011-08-27, 01:39:04,VALID,916.759,VALID,0,VALID,96.9775,VALID,0,VALID,19.5288,VALID,3,VALID,0,
2011-08-27, 01:40:04,VALID,916.744,VALID,0,VALID,96.9165,VALID,0,VALID,19.4898,VALID,3,VALID,0,
2011-08-27, 01:41:04,VALID,916.753,VALID,0,VALID,96.8403,VALID,0,VALID,19.4703,VALID,3,VALID,0.220313,
2011-08-27, 01:42:04,VALID,916.805,VALID,0,VALID,96.8707,VALID,0,VALID,19.4298,VALID,3,VALID,0.306641,
2011-08-27, 01:43:04,VALID,916.78,VALID,0,VALID,96.9241,VALID,0,VALID,19.4298,VALID,3,VALID,0.390234,
2011-08-27, 01:44:04,VALID,916.787,VALID,0,VALID,96.9241,VALID,0,VALID,19.4103,VALID,3,VALID,0.631641,
2011-08-27, 01:45:04,VALID,916.76,VALID,0,VALID,96.9241,VALID,0,VALID,19.4103,VALID,3,VALID,0.843359,
2011-08-27, 01:46:04,VALID,916.729,VALID,0,VALID,96.9317,VALID,0,VALID,19.3908,VALID,3,VALID,0.716016,
2011-08-27, 01:47:04,VALID,916.662,VALID,0,VALID,96.9241,VALID,0,VALID,19.3713,VALID,3,VALID,0.398047,
2011-08-27, 01:48:04,VALID,916.676,VALID,0,VALID,96.9698,VALID,0,VALID,19.3923,VALID,3,VALID,0.253125,
2011-08-27, 01:49:04,VALID,916.636,VALID,0,VALID,97.008,VALID,0,VALID,19.3713,VALID,3,VALID,0.0761719,
2011-08-27, 01:50:04,VALID,916.611,VALID,0,VALID,97.0385,VALID,0,VALID,19.3908,VALID,3,VALID,0.03125,
2011-08-27, 01:51:04,VALID,916.608,VALID,0,VALID,97.069,VALID,0,VALID,19.4103,VALID,3,VALID,0.0988281,
2011-08-27, 01:52:04,VALID,916.639,VALID,0,VALID,97.0461,VALID,0,VALID,19.4103,VALID,3,VALID,0,
2011-08-27, 01:53:04,VALID,916.625,VALID,0,VALID,97.0613,VALID,0,VALID,19.3908,VALID,3,VALID,0,
2011-08-27, 01:54:04,VALID,916.628,VALID,0,VALID,97.0766,VALID,0,VALID,19.4103,VALID,3,VALID,0.146484,
2011-08-27, 01:55:04,VALID,916.613,VALID,0,VALID,97.0308,VALID,0,VALID,19.3908,VALID,3,VALID,0.287109,
2011-08-27, 01:56:04,VALID,916.581,VALID,0,VALID,97.0385,VALID,0,VALID,19.3728,VALID,3,VALID,0.516406,
2011-08-27, 01:57:04,VALID,916.561,VALID,0,VALID,96.9927,VALID,0,VALID,19.3323,VALID,3,VALID,0.471875,
2011-08-27, 01:58:04,VALID,916.528,VALID,0,VALID,97.0385,VALID,0,VALID,19.3323,VALID,3,VALID,0.390234,
2011-08-27, 01:59:04,VALID,916.516,VALID,0,VALID,97.0461,VALID,0,VALID,19.3533,VALID,3,VALID,0.46875,
2011-08-27, 02:00:04,VALID,916.504,VALID,0,VALID,96.9851,VALID,0,VALID,19.2948,VALID,3,VALID,0.401563,
2011-08-27, 02:01:04,VALID,916.476,VALID,0,VALID,96.9927,VALID,0,VALID,19.2543,VALID,3,VALID,0.499219,
2011-08-27, 02:02:04,VALID,916.492,VALID,0,VALID,97.0003,VALID,0,VALID,19.2348,VALID,3,VALID,0.528125,
2011-08-27, 02:03:04,VALID,916.501,VALID,0,VALID,97.0385,VALID,0,VALID,19.1958,VALID,3,VALID,0.404297,
2011-08-27, 02:04:04,VALID,916.49,VALID,0,VALID,97.069,VALID,0,VALID,19.1958,VALID,3,VALID,0.235547,
2011-08-27, 02:05:04,VALID,916.479,VALID,0,VALID,97.069,VALID,0,VALID,19.1958,VALID,3,VALID,0.576953,
2011-08-27, 02:06:04,VALID,916.497,VALID,0,VALID,97.1299,VALID,0,VALID,19.2168,VALID,3,VALID,0.621484,
2011-08-27, 02:07:04,VALID,916.501,VALID,0,VALID,97.1071,VALID,0,VALID,19.2363,VALID,3,VALID,0.483203,
2011-08-27, 02:08:04,VALID,916.488,VALID,0,VALID,97.1299,VALID,0,VALID,19.2753,VALID,3,VALID,0.384766,
2011-08-27, 02:09:04,VALID,916.481,VALID,0,VALID,97.1604,VALID,0,VALID,19.2348,VALID,3,VALID,0,
2011-08-27, 02:10:04,VALID,916.5,VALID,0,VALID,97.1681,VALID,0,VALID,19.2348,VALID,3,VALID,0,
2011-08-27, 02:11:04,VALID,916.489,VALID,0,VALID,97.1909,VALID,0,VALID,19.2348,VALID,3,VALID,0,
2011-08-27, 02:12:04,VALID,916.464,VALID,0,VALID,97.1986,VALID,0,VALID,19.2933,VALID,3,VALID,0,
2011-08-27, 02:13:04,VALID,916.425,VALID,0,VALID,97.1909,VALID,0,VALID,19.2933,VALID,3,VALID,0.552344,
2011-08-27, 02:14:04,VALID,916.435,VALID,0,VALID,97.2138,VALID,0,VALID,19.3128,VALID,3,VALID,0.4125,
2011-08-27, 02:15:04,VALID,916.416,VALID,0,VALID,97.2062,VALID,0,VALID,19.2933,VALID,3,VALID,0.316797,
2011-08-27, 02:16:04,VALID,916.431,VALID,0,VALID,97.1986,VALID,0,VALID,19.2753,VALID,3,VALID,0.176563,
2011-08-27, 02:17:04,VALID,916.396,VALID,0,VALID,97.1986,VALID,0,VALID,19.2543,VALID,3,VALID,0.175391,
2011-08-27, 02:18:04,VALID,916.372,VALID,0,VALID,97.1986,VALID,0,VALID,19.1958,VALID,3,VALID,0.0480469,
2011-08-27, 02:19:04,VALID,916.371,VALID,0,VALID,97.1986,VALID,0,VALID,19.2153,VALID,3,VALID,0.316016,
2011-08-27, 02:20:04,VALID,916.331,VALID,0,VALID,97.2062,VALID,0,VALID,19.2153,VALID,3,VALID,0.194141,
2011-08-27, 02:21:04,VALID,916.315,VALID,0,VALID,97.2062,VALID,0,VALID,19.1958,VALID,3,VALID,0.0746094,
2011-08-27, 02:22:04,VALID,916.248,VALID,0,VALID,97.1986,VALID,0,VALID,19.1958,VALID,3,VALID,0.223047,
2011-08-27, 02:23:04,VALID,916.266,VALID,0,VALID,97.2138,VALID,0,VALID,19.1763,VALID,3,VALID,0.2625,
2011-08-27, 02:24:04,VALID,916.264,VALID,0,VALID,97.2138,VALID,0,VALID,19.1763,VALID,3,VALID,0.385938,
2011-08-27, 02:25:04,VALID,916.248,VALID,0,VALID,97.2214,VALID,0,VALID,19.1958,VALID,3,VALID,0.855469,
2011-08-27, 02:26:04,VALID,916.28,VALID,0,VALID,97.229,VALID,0,VALID,19.2153,VALID,3,VALID,0.605078,
2011-08-27, 02:27:04,VALID,916.304,VALID,0,VALID,97.2519,VALID,0,VALID,19.2348,VALID,3,VALID,0.639844,
2011-08-27, 02:28:04,VALID,916.327,VALID,0,VALID,97.2367,VALID,0,VALID,19.2153,VALID,3,VALID,0.442969,
2011-08-27, 02:29:04,VALID,916.309,VALID,0,VALID,97.2519,VALID,0,VALID,19.1958,VALID,3,VALID,0.753125,
2011-08-27, 02:30:04,VALID,916.281,VALID,0,VALID,97.229,VALID,0,VALID,19.1568,VALID,3,VALID,0.726172,
2011-08-27, 02:31:04,VALID,916.287,VALID,0,VALID,97.2367,VALID,0,VALID,19.1568,VALID,3,VALID,0.807813,
2011-08-27, 02:32:04,VALID,916.262,VALID,0,VALID,97.2367,VALID,0,VALID,19.1568,VALID,3,VALID,0.682031,
2011-08-27, 02:33:04,VALID,916.244,VALID,0,VALID,97.2595,VALID,0,VALID,19.1373,VALID,3,VALID,0.39375,
2011-08-27, 02:34:04,VALID,916.23,VALID,0,VALID,97.2595,VALID,0,VALID,19.1583,VALID,3,VALID,0.232812,
2011-08-27, 02:35:04,VALID,916.212,VALID,0,VALID,97.2672,VALID,0,VALID,19.1583,VALID,3,VALID,0.05,
2011-08-27, 02:36:04,VALID,916.193,VALID,0,VALID,97.2824,VALID,0,VALID,19.1373,VALID,3,VALID,0,
2011-08-27, 02:37:04,VALID,916.16,VALID,0,VALID,97.2824,VALID,0,VALID,19.1778,VALID,3,VALID,0,
2011-08-27, 02:38:04,VALID,916.131,VALID,0,VALID,97.2977,VALID,0,VALID,19.1583,VALID,3,VALID,0,
2011-08-27, 02:39:04,VALID,916.144,VALID,0,VALID,97.29,VALID,0,VALID,19.1568,VALID,3,VALID,0,
2011-08-27, 02:40:04,VALID,916.133,VALID,0,VALID,97.3129,VALID,0,VALID,19.1973,VALID,3,VALID,0.119922,
2011-08-27, 02:41:04,VALID,916.15,VALID,0,VALID,97.3205,VALID,0,VALID,19.1958,VALID,3,VALID,0.0382813,
2011-08-27, 02:42:04,VALID,916.14,VALID,0,VALID,97.3205,VALID,0,VALID,19.2139,VALID,3,VALID,0,
2011-08-27, 02:43:04,VALID,916.145,VALID,0,VALID,97.3281,VALID,0,VALID,19.2543,VALID,3,VALID,0,
2011-08-27, 02:44:04,VALID,916.153,VALID,0,VALID,97.3434,VALID,0,VALID,19.2933,VALID,3,VALID,0,
2011-08-27, 02:45:04,VALID,916.184,VALID,0,VALID,97.3358,VALID,0,VALID,19.2738,VALID,3,VALID,0.441797,
2011-08-27, 02:46:04,VALID,916.178,VALID,0,VALID,97.3205,VALID,0,VALID,19.2543,VALID,3,VALID,0.620313,
2011-08-27, 02:47:04,VALID,916.199,VALID,0,VALID,97.3129,VALID,0,VALID,19.2153,VALID,3,VALID,0.765625,
2011-08-27, 02:48:04,VALID,916.196,VALID,0,VALID,97.3205,VALID,0,VALID,19.2153,VALID,3,VALID,0.676562,
2011-08-27, 02:49:04,VALID,916.252,VALID,0,VALID,97.3281,VALID,0,VALID,19.2348,VALID,3,VALID,0.666406,
2011-08-27, 02:50:04,VALID,916.239,VALID,0,VALID,97.3434,VALID,0,VALID,19.2348,VALID,3,VALID,0.332031,
2011-08-27, 02:51:04,VALID,916.273,VALID,0,VALID,97.3281,VALID,0,VALID,19.2543,VALID,3,VALID,0.341016,
2011-08-27, 02:52:04,VALID,916.293,VALID,0,VALID,97.3434,VALID,0,VALID,19.2348,VALID,3,VALID,0.824609,
2011-08-27, 02:53:04,VALID,916.265,VALID,0,VALID,97.3281,VALID,0,VALID,19.2348,VALID,3,VALID,0.376563,
2011-08-27, 02:54:04,VALID,916.213,VALID,0,VALID,97.3434,VALID,0,VALID,19.2153,VALID,3,VALID,0.411719,
2011-08-27, 02:55:04,VALID,916.186,VALID,0,VALID,97.3358,VALID,0,VALID,19.2363,VALID,3,VALID,0.497266,
2011-08-27, 02:56:04,VALID,916.185,VALID,0,VALID,97.3358,VALID,0,VALID,19.1958,VALID,3,VALID,0.223047,
2011-08-27, 02:57:04,VALID,916.162,VALID,0,VALID,97.3129,VALID,0,VALID,19.1958,VALID,3,VALID,0.00195313,
2011-08-27, 02:58:04,VALID,916.165,VALID,0,VALID,97.3205,VALID,0,VALID,19.1763,VALID,3,VALID,0.256641,
2011-08-27, 02:59:04,VALID,916.159,VALID,0,VALID,97.3281,VALID,0,VALID,19.1568,VALID,3,VALID,0.2625,
2011-08-27, 03:00:04,VALID,916.169,VALID,0,VALID,97.3205,VALID,0,VALID,19.1568,VALID,3,VALID,0,
2011-08-27, 03:01:04,VALID,916.172,VALID,0,VALID,97.3434,VALID,0,VALID,19.1763,VALID,3,VALID,0,
2011-08-27, 03:02:04,VALID,916.179,VALID,0,VALID,97.3358,VALID,0,VALID,19.1958,VALID,3,VALID,0.322656,
2011-08-27, 03:03:04,VALID,916.192,VALID,0,VALID,97.3205,VALID,0,VALID,19.1763,VALID,3,VALID,0.330469,
2011-08-27, 03:04:04,VALID,916.202,VALID,0,VALID,97.3434,VALID,0,VALID,19.1763,VALID,3,VALID,0.361328,
2011-08-27, 03:05:04,VALID,916.205,VALID,0,VALID,97.3434,VALID,0,VALID,19.1568,VALID,3,VALID,0.435547,
2011-08-27, 03:06:04,VALID,916.167,VALID,0,VALID,97.3358,VALID,0,VALID,19.1178,VALID,3,VALID,0.555469,
2011-08-27, 03:07:04,VALID,916.123,VALID,0,VALID,97.3358,VALID,0,VALID,19.1193,VALID,3,VALID,0.521484,
2011-08-27, 03:08:04,VALID,916.113,VALID,0,VALID,97.351,VALID,0,VALID,19.0983,VALID,3,VALID,0.492969,
2011-08-27, 03:09:04,VALID,916.073,VALID,0,VALID,97.351,VALID,0,VALID,19.0983,VALID,3,VALID,0.488672,
2011-08-27, 03:10:04,VALID,916.05,VALID,0,VALID,97.3586,VALID,0,VALID,19.0788,VALID,3,VALID,0.473437,
2011-08-27, 03:11:04,VALID,916.034,VALID,0,VALID,97.3586,VALID,0,VALID,19.0983,VALID,3,VALID,0.569922,
2011-08-27, 03:12:04,VALID,916.007,VALID,0,VALID,97.3586,VALID,0,VALID,19.0983,VALID,3,VALID,0.501562,
2011-08-27, 03:13:04,VALID,915.989,VALID,0,VALID,97.3586,VALID,0,VALID,19.0983,VALID,3,VALID,0.4875,
2011-08-27, 03:14:04,VALID,915.994,VALID,0,VALID,97.351,VALID,0,VALID,19.0788,VALID,3,VALID,0.736328,
2011-08-27, 03:15:04,VALID,915.962,VALID,0,VALID,97.3739,VALID,0,VALID,19.0788,VALID,3,VALID,0.592578,
2011-08-27, 03:16:04,VALID,915.943,VALID,0,VALID,97.3663,VALID,0,VALID,19.0998,VALID,3,VALID,0.572266,
2011-08-27, 03:17:04,VALID,915.954,VALID,0,VALID,97.3739,VALID,0,VALID,19.0998,VALID,3,VALID,0.581641,
2011-08-27, 03:18:04,VALID,915.959,VALID,0,VALID,97.3891,VALID,0,VALID,19.0788,VALID,3,VALID,0.523047,
2011-08-27, 03:19:04,VALID,915.947,VALID,0,VALID,97.4044,VALID,0,VALID,19.0593,VALID,3,VALID,0.562891,
2011-08-27, 03:20:04,VALID,915.916,VALID,0,VALID,97.3891,VALID,0,VALID,19.0608,VALID,3,VALID,0.419922,
2011-08-27, 03:21:04,VALID,915.92,VALID,0,VALID,97.3968,VALID,0,VALID,19.0398,VALID,23,VALID,0.851563,
2011-08-27, 03:22:04,VALID,915.916,VALID,0,VALID,97.3739,VALID,0,VALID,19.0218,VALID,110,VALID,0.548047,
2011-08-27, 03:23:04,VALID,915.893,VALID,0,VALID,97.3968,VALID,0,VALID,19.0203,VALID,110,VALID,0.773828,
2011-08-27, 03:24:04,VALID,915.969,VALID,0,VALID,97.4044,VALID,0,VALID,19.0203,VALID,110,VALID,0.739453,
2011-08-27, 03:25:04,VALID,915.975,VALID,0,VALID,97.4044,VALID,0,VALID,19.0203,VALID,110,VALID,0.302734,
2011-08-27, 03:26:04,VALID,915.992,VALID,0,VALID,97.4196,VALID,0,VALID,19.0203,VALID,110,VALID,0.0957031,
2011-08-27, 03:27:04,VALID,915.987,VALID,0,VALID,97.3968,VALID,0,VALID,19.0203,VALID,110,VALID,0.39375,
2011-08-27, 03:28:04,VALID,915.948,VALID,0,VALID,97.3968,VALID,0,VALID,19.0203,VALID,110,VALID,0.356641,
2011-08-27, 03:29:04,VALID,915.946,VALID,0,VALID,97.3968,VALID,0,VALID,19.0203,VALID,110,VALID,0.479297,
2011-08-27, 03:30:04,VALID,915.909,VALID,0,VALID,97.4273,VALID,0,VALID,19.0203,VALID,111,VALID,0.932813,
2011-08-27, 03:31:04,VALID,915.888,VALID,0,VALID,97.4273,VALID,0,VALID,19.0203,VALID,111,VALID,0.412891,
2011-08-27, 03:32:04,VALID,915.846,VALID,0,VALID,97.4196,VALID,0,VALID,19.0398,VALID,110,VALID,0.311328,
2011-08-27, 03:33:04,VALID,915.813,VALID,0,VALID,97.412,VALID,0,VALID,19.0398,VALID,111,VALID,0.128906,
2011-08-27, 03:34:04,VALID,915.809,VALID,0,VALID,97.4273,VALID,0,VALID,19.0593,VALID,110,VALID,0.121484,
2011-08-27, 03:35:04,VALID,915.779,VALID,0,VALID,97.4196,VALID,0,VALID,19.0398,VALID,111,VALID,0.04375,
2011-08-27, 03:36:04,VALID,915.796,VALID,0,VALID,97.412,VALID,0,VALID,19.0413,VALID,111,VALID,0.247266,
2011-08-27, 03:37:04,VALID,915.794,VALID,0,VALID,97.4044,VALID,0,VALID,18.9814,VALID,110,VALID,0.440625,
2011-08-27, 03:38:04,VALID,915.814,VALID,0,VALID,97.3739,VALID,0,VALID,18.9619,VALID,110,VALID,0.314453,
2011-08-27, 03:39:04,VALID,915.818,VALID,0,VALID,97.3663,VALID,0,VALID,18.9243,VALID,111,VALID,0.276953,
2011-08-27, 03:40:04,VALID,915.832,VALID,0,VALID,97.3663,VALID,0,VALID,18.8853,VALID,110,VALID,0.503516,
2011-08-27, 03:41:04,VALID,915.828,VALID,0,VALID,97.3358,VALID,0,VALID,18.8449,VALID,110,VALID,0.552734,
2011-08-27, 03:42:04,VALID,915.864,VALID,0,VALID,97.3281,VALID,0,VALID,18.8059,VALID,110,VALID,0.754297,
2011-08-27, 03:43:04,VALID,915.879,VALID,0,VALID,97.3358,VALID,0,VALID,18.7683,VALID,111,VALID,0.869531,
2011-08-27, 03:44:04,VALID,915.945,VALID,0,VALID,97.3358,VALID,0,VALID,18.7084,VALID,111,VALID,0.896484,
2011-08-27, 03:45:04,VALID,915.981,VALID,0,VALID,97.3434,VALID,0,VALID,18.7084,VALID,110,VALID,0.914453,
2011-08-27, 03:46:04,VALID,916.016,VALID,0,VALID,97.3663,VALID,0,VALID,18.7098,VALID,110,VALID,0.882813,
2011-08-27, 03:47:04,VALID,916.011,VALID,0,VALID,97.3739,VALID,0,VALID,18.7084,VALID,111,VALID,0.864062,
2011-08-27, 03:48:04,VALID,916.048,VALID,0,VALID,97.4044,VALID,0,VALID,18.7084,VALID,111,VALID,0.633203,
2011-08-27, 03:49:04,VALID,916.052,VALID,0,VALID,97.412,VALID,0,VALID,18.6903,VALID,111,VALID,0.733594,
2011-08-27, 03:50:04,VALID,916.047,VALID,0,VALID,97.4349,VALID,0,VALID,18.6889,VALID,110,VALID,0.899219,